| time (UTC) | temp C | wind direction | speed KPH | gust KPH | rain 1hr cm | rain 24hr cm | rain mn cm | humidity % | barometer mb |
| 20260508013507 | 18 | 180 | 6.4 | 9.7 | 0.00 | 0.00 | 0.00 | 46 | 1008.6 |
| 20260508013005 | 18 | 179 | 3.2 | 6.4 | 0.00 | 0.00 | 0.00 | 45 | 1008.7 |
| 20260508012501 | 18 | 184 | 3.2 | 6.4 | 0.00 | 0.00 | 0.00 | 45 | 1008.6 |
| 20260508011958 | 18 | 172 | 1.6 | 4.8 | 0.00 | 0.00 | 0.00 | 45 | 1008.8 |
| 20260508011456 | 19 | 78 | 1.6 | 6.4 | 0.00 | 0.00 | 0.00 | 44 | 1008.7 |
| 20260508010953 | 19 | 170 | 6.4 | 8.0 | 0.00 | 0.00 | 0.00 | 44 | 1008.7 |
| 20260508010451 | 19 | 163 | 3.2 | 8.0 | 0.00 | 0.00 | 0.00 | 44 | 1008.7 |
| 20260508005948 | 19 | 156 | 4.8 | 6.4 | 0.00 | 0.00 | 0.00 | 44 | 1008.5 |
| 20260508005444 | 20 | 187 | 0.0 | 1.6 | 0.00 | 0.00 | 0.00 | 43 | 1008.7 |
| 20260508004941 | 20 | 190 | 3.2 | 9.7 | 0.00 | 0.00 | 0.00 | 43 | 1008.7 |
| 20260508004437 | 20 | 190 | 3.2 | 11.3 | 0.00 | 0.00 | 0.00 | 42 | 1008.4 |
| 20260508003934 | 20 | 205 | 4.8 | 8.0 | 0.00 | 0.00 | 0.00 | 42 | 1008.6 |
| 20260508003430 | 20 | 190 | 6.4 | 6.4 | 0.00 | 0.00 | 0.00 | 42 | 1008.6 |
| 20260508002928 | 20 | 162 | 3.2 | 8.0 | 0.00 | 0.00 | 0.00 | 41 | 1008.6 |
| 20260508002424 | 20 | 36 | 0.0 | 4.8 | 0.00 | 0.00 | 0.00 | 41 | 1008.5 |
| 20260508001920 | 20 | 153 | 3.2 | 9.7 | 0.00 | 0.00 | 0.00 | 41 | 1008.8 |
| 20260508001417 | 20 | 205 | 6.4 | 9.7 | 0.00 | 0.00 | 0.00 | 41 | 1008.7 |
| 20260508000913 | 20 | 77 | 3.2 | 9.7 | 0.00 | 0.00 | 0.00 | 41 | 1008.8 |
| 20260508000412 | 21 | 192 | 8.0 | 9.7 | 0.00 | 0.00 | 0.00 | 40 | 1008.6 |
| 20260507235906 | 21 | 185 | 8.0 | 9.7 | 0.00 | 0.00 | 0.00 | 40 | 1008.8 |
| 20260507235404 | 21 | 182 | 9.7 | 12.9 | 0.00 | 0.00 | 0.00 | 39 | 1008.8 |
| 20260507234900 | 21 | 190 | 4.8 | 9.7 | 0.00 | 0.00 | 0.00 | 39 | 1009.0 |
| 20260507234359 | 21 | 186 | 9.7 | 19.3 | 0.00 | 0.00 | 0.00 | 38 | 1008.7 |
| 20260507233853 | 21 | 192 | 8.0 | 17.7 | 0.00 | 0.00 | 0.00 | 38 | 1009.0 |
| 20260507233351 | 21 | 189 | 9.7 | 14.5 | 0.00 | 0.00 | 0.00 | 36 | 1009.1 |
| 20260507232849 | 21 | 185 | 12.9 | 14.5 | 0.00 | 0.00 | 0.00 | 36 | 1008.9 |
| 20260507232345 | 21 | 186 | 6.4 | 17.7 | 0.00 | 0.00 | 0.00 | 36 | 1009.0 |
| 20260507231843 | 21 | 166 | 11.3 | 14.5 | 0.00 | 0.00 | 0.00 | 37 | 1009.0 |
| 20260507231339 | 21 | 162 | 4.8 | 17.7 | 0.00 | 0.00 | 0.00 | 37 | 1009.1 |
| 20260507230835 | 21 | 197 | 16.1 | 20.9 | 0.00 | 0.00 | 0.00 | 36 | 1009.2 |
| 20260507230333 | 21 | 192 | 14.5 | 16.1 | 0.00 | 0.00 | 0.00 | 36 | 1009.0 |
| 20260507225833 | 21 | 195 | 16.1 | 24.1 | 0.00 | 0.00 | 0.00 | 35 | 1009.3 |
| 20260507225329 | 21 | 195 | 11.3 | 11.3 | 0.00 | 0.00 | 0.00 | 37 | 1009.5 |
| 20260507224825 | 21 | 185 | 16.1 | 19.3 | 0.00 | 0.00 | 0.00 | 35 | 1009.5 |
| 20260507224322 | 21 | 177 | 14.5 | 20.9 | 0.00 | 0.00 | 0.00 | 37 | 1009.4 |
| 20260507223818 | 21 | 185 | 3.2 | 14.5 | 0.00 | 0.00 | 0.00 | 39 | 1009.6 |
| 20260507223314 | 21 | 182 | 14.5 | 19.3 | 0.00 | 0.00 | 0.00 | 37 | 1009.6 |
| 20260507222812 | 21 | 186 | 11.3 | 19.3 | 0.00 | 0.00 | 0.00 | 36 | 1009.5 |
| 20260507222308 | 21 | 193 | 12.9 | 22.5 | 0.00 | 0.00 | 0.00 | 38 | 1009.8 |
| 20260507221805 | 21 | 262 | 3.2 | 12.9 | 0.00 | 0.00 | 0.00 | 37 | 1009.8 |
| 20260507221302 | 21 | 188 | 12.9 | 17.7 | 0.00 | 0.00 | 0.00 | 37 | 1009.6 |
| 20260507220757 | 21 | 191 | 9.7 | 16.1 | 0.00 | 0.00 | 0.00 | 39 | 1009.7 |
| 20260507220256 | 21 | 189 | 11.3 | 12.9 | 0.00 | 0.00 | 0.00 | 38 | 1009.7 |
| 20260507215752 | 21 | 202 | 6.4 | 6.4 | 0.00 | 0.00 | 0.00 | 40 | 1009.7 |
| 20260507215249 | 21 | 208 | 8.0 | 27.4 | 0.00 | 0.00 | 0.00 | 38 | 1009.8 |
| 20260507214700 | 21 | 189 | 8.0 | 12.9 | 0.00 | 0.00 | 0.00 | 38 | 1009.7 |
| 20260507214156 | 21 | 189 | 8.0 | 12.9 | 0.00 | 0.00 | 0.00 | 38 | 1009.7 |
| 20260507213652 | 21 | 189 | 8.0 | 12.9 | 0.00 | 0.00 | 0.00 | 38 | 1009.7 |
| 20260507213150 | 21 | 163 | 9.7 | 24.1 | 0.00 | 0.00 | 0.00 | 39 | 1009.9 |
| 20260507212646 | 21 | 211 | 8.0 | 27.4 | 0.00 | 0.00 | 0.00 | 39 | 1009.8 |
| 20260507212143 | 21 | 204 | 8.0 | 20.9 | 0.00 | 0.00 | 0.00 | 39 | 1010.2 |
| 20260507211640 | 21 | 210 | 11.3 | 16.1 | 0.00 | 0.00 | 0.00 | 38 | 1010.0 |
| 20260507211135 | 21 | 202 | 9.7 | 22.5 | 0.00 | 0.00 | 0.00 | 39 | 1010.1 |
| 20260507210633 | 21 | 212 | 6.4 | 14.5 | 0.00 | 0.00 | 0.00 | 40 | 1010.0 |
| 20260507210129 | 21 | 215 | 3.2 | 14.5 | 0.00 | 0.00 | 0.00 | 40 | 1010.3 |
| 20260507205626 | 21 | 173 | 11.3 | 12.9 | 0.00 | 0.00 | 0.00 | 40 | 1010.2 |
| 20260507205122 | 21 | 201 | 3.2 | 14.5 | 0.00 | 0.00 | 0.00 | 40 | 1010.4 |
| 20260507204619 | 20 | 221 | 6.4 | 8.0 | 0.00 | 0.00 | 0.00 | 43 | 1010.3 |
| 20260507204116 | 20 | 204 | 9.7 | 22.5 | 0.00 | 0.00 | 0.00 | 40 | 1010.6 |
| 20260507203614 | 20 | 224 | 14.5 | 20.9 | 0.00 | 0.00 | 0.00 | 40 | 1010.8 |
| 20260507203111 | 20 | 188 | 19.3 | 27.4 | 0.00 | 0.00 | 0.00 | 40 | 1010.6 |
| 20260507202607 | 20 | 315 | 4.8 | 12.9 | 0.00 | 0.00 | 0.00 | 42 | 1010.9 |
| 20260507202103 | 20 | 204 | 12.9 | 17.7 | 0.00 | 0.00 | 0.00 | 42 | 1011.2 |
| 20260507201558 | 20 | 157 | 6.4 | 24.1 | 0.00 | 0.00 | 0.00 | 43 | 1011.1 |
| 20260507201055 | 20 | 185 | 9.7 | 17.7 | 0.00 | 0.00 | 0.00 | 44 | 1010.9 |
| 20260507200551 | 20 | 197 | 8.0 | 17.7 | 0.00 | 0.00 | 0.00 | 43 | 1011.2 |
| 20260507200047 | 20 | 199 | 8.0 | 17.7 | 0.00 | 0.00 | 0.00 | 41 | 1011.2 |
| 20260507195545 | 20 | 175 | 6.4 | 19.3 | 0.00 | 0.00 | 0.00 | 42 | 1011.2 |
| 20260507195042 | 20 | 166 | 6.4 | 22.5 | 0.00 | 0.00 | 0.00 | 42 | 1011.4 |
| 20260507194538 | 19 | 176 | 17.7 | 22.5 | 0.00 | 0.00 | 0.00 | 43 | 1011.5 |
| 20260507194034 | 19 | 154 | 1.6 | 14.5 | 0.00 | 0.00 | 0.00 | 45 | 1011.6 |
| 20260507193532 | 19 | 137 | 11.3 | 24.1 | 0.00 | 0.00 | 0.00 | 44 | 1011.8 |
| 20260507193029 | 19 | 169 | 8.0 | 27.4 | 0.00 | 0.00 | 0.00 | 43 | 1011.8 |
| 20260507192525 | 19 | 350 | 6.4 | 24.1 | 0.00 | 0.00 | 0.00 | 46 | 1011.7 |
| 20260507192022 | 19 | 21 | 6.4 | 16.1 | 0.00 | 0.00 | 0.00 | 44 | 1011.8 |
| 20260507191517 | 18 | 232 | 4.8 | 14.5 | 0.00 | 0.00 | 0.00 | 44 | 1012.0 |
| 20260507191014 | 18 | 185 | 11.3 | 19.3 | 0.00 | 0.00 | 0.00 | 45 | 1012.2 |
| 20260507190512 | 18 | 168 | 11.3 | 19.3 | 0.00 | 0.00 | 0.00 | 46 | 1012.2 |
| 20260507190010 | 18 | 175 | 20.9 | 20.9 | 0.00 | 0.00 | 0.00 | 44 | 1012.1 |
| 20260507185508 | 18 | 97 | 3.2 | 33.8 | 0.00 | 0.00 | 0.00 | 46 | 1012.1 |
| 20260507185004 | 18 | 147 | 8.0 | 16.1 | 0.00 | 0.00 | 0.00 | 44 | 1012.2 |
| 20260507184503 | 18 | 191 | 3.2 | 19.3 | 0.00 | 0.00 | 0.00 | 46 | 1012.3 |
| 20260507184000 | 18 | 182 | 11.3 | 16.1 | 0.00 | 0.00 | 0.00 | 46 | 1012.3 |
| 20260507183456 | 18 | 231 | 3.2 | 12.9 | 0.00 | 0.00 | 0.00 | 45 | 1012.3 |
| 20260507182953 | 18 | 200 | 11.3 | 27.4 | 0.00 | 0.00 | 0.00 | 45 | 1012.4 |
| 20260507182449 | 18 | 346 | 6.4 | 27.4 | 0.00 | 0.00 | 0.00 | 46 | 1012.4 |
| 20260507181945 | 18 | 241 | 11.3 | 19.3 | 0.00 | 0.00 | 0.00 | 47 | 1012.7 |
| 20260507181442 | 18 | 208 | 20.9 | 24.1 | 0.00 | 0.00 | 0.00 | 43 | 1012.7 |
| 20260507180938 | 18 | 178 | 11.3 | 29.0 | 0.00 | 0.00 | 0.00 | 45 | 1012.7 |
| 20260507180435 | 18 | 206 | 3.2 | 19.3 | 0.00 | 0.00 | 0.00 | 47 | 1012.8 |
| 20260507175931 | 18 | 173 | 14.5 | 24.1 | 0.00 | 0.00 | 0.00 | 44 | 1012.9 |
| 20260507175428 | 18 | 192 | 17.7 | 20.9 | 0.00 | 0.00 | 0.00 | 44 | 1013.2 |
| 20260507174926 | 18 | 312 | 3.2 | 16.1 | 0.00 | 0.00 | 0.00 | 46 | 1013.4 |
| 20260507174423 | 18 | 189 | 9.7 | 17.7 | 0.00 | 0.00 | 0.00 | 45 | 1013.2 |
| 20260507173920 | 18 | 193 | 6.4 | 11.3 | 0.00 | 0.00 | 0.00 | 47 | 1013.3 |
| 20260507173417 | 18 | 230 | 3.2 | 14.5 | 0.00 | 0.00 | 0.00 | 46 | 1013.3 |
| 20260507172914 | 18 | 202 | 8.0 | 27.4 | 0.00 | 0.00 | 0.00 | 44 | 1013.7 |
| 20260507172411 | 17 | 208 | 6.4 | 22.5 | 0.00 | 0.00 | 0.00 | 45 | 1013.6 |
| 20260507171907 | 18 | 172 | 24.1 | 25.7 | 0.00 | 0.00 | 0.00 | 46 | 1013.9 |
| 20260507171403 | 17 | 3 | 6.4 | 24.1 | 0.00 | 0.00 | 0.00 | 47 | 1013.6 |
| 20260507170900 | 17 | 201 | 6.4 | 14.5 | 0.00 | 0.00 | 0.00 | 47 | 1013.5 |
| 20260507170357 | 17 | 238 | 4.8 | 11.3 | 0.00 | 0.00 | 0.00 | 46 | 1013.6 |
| 20260507165853 | 17 | 206 | 11.3 | 19.3 | 0.00 | 0.00 | 0.00 | 45 | 1014.2 |
| 20260507165349 | 17 | 199 | 14.5 | 16.1 | 0.00 | 0.00 | 0.00 | 47 | 1013.8 |
| 20260507164845 | 17 | 244 | 3.2 | 20.9 | 0.00 | 0.00 | 0.00 | 50 | 1014.2 |
| 20260507164342 | 17 | 193 | 14.5 | 14.5 | 0.00 | 0.00 | 0.00 | 45 | 1014.1 |
| 20260507163839 | 17 | 195 | 12.9 | 17.7 | 0.00 | 0.00 | 0.00 | 47 | 1014.1 |
| 20260507163337 | 17 | 200 | 9.7 | 22.5 | 0.00 | 0.00 | 0.00 | 45 | 1014.5 |
| 20260507162833 | 17 | 185 | 11.3 | 30.6 | 0.00 | 0.00 | 0.00 | 46 | 1014.2 |
| 20260507162329 | 17 | 187 | 24.1 | 25.7 | 0.00 | 0.00 | 0.00 | 46 | 1014.3 |
| 20260507161826 | 17 | 220 | 6.4 | 9.7 | 0.00 | 0.00 | 0.00 | 49 | 1014.3 |
| 20260507161322 | 17 | 50 | 6.4 | 8.0 | 0.00 | 0.00 | 0.00 | 48 | 1014.1 |
| 20260507160819 | 17 | 195 | 3.2 | 14.5 | 0.00 | 0.00 | 0.00 | 47 | 1014.4 |
| 20260507160315 | 17 | 219 | 11.3 | 14.5 | 0.00 | 0.00 | 0.00 | 48 | 1014.4 |
| 20260507155811 | 16 | 221 | 8.0 | 14.5 | 0.00 | 0.00 | 0.00 | 48 | 1014.8 |
| 20260507155307 | 16 | 211 | 3.2 | 16.1 | 0.00 | 0.00 | 0.00 | 49 | 1014.5 |
| 20260507154804 | 16 | 213 | 4.8 | 14.5 | 0.00 | 0.00 | 0.00 | 50 | 1014.3 |
| 20260507154301 | 16 | 207 | 6.4 | 25.7 | 0.00 | 0.00 | 0.00 | 50 | 1014.6 |
| 20260507153758 | 16 | 221 | 8.0 | 8.0 | 0.00 | 0.00 | 0.00 | 50 | 1014.7 |
| 20260507153254 | 16 | 348 | 6.4 | 11.3 | 0.00 | 0.00 | 0.00 | 51 | 1014.8 |
| 20260507152751 | 16 | 184 | 4.8 | 17.7 | 0.00 | 0.00 | 0.00 | 50 | 1015.0 |
| 20260507152248 | 16 | 291 | 1.6 | 12.9 | 0.00 | 0.00 | 0.00 | 52 | 1014.9 |
| 20260507151743 | 16 | 215 | 6.4 | 9.7 | 0.00 | 0.00 | 0.00 | 51 | 1014.9 |
| 20260507151240 | 15 | 250 | 8.0 | 16.1 | 0.00 | 0.00 | 0.00 | 53 | 1014.9 |
| 20260507150737 | 15 | 279 | 4.8 | 8.0 | 0.00 | 0.00 | 0.00 | 51 | 1014.9 |
| 20260507150234 | 15 | 213 | 1.6 | 9.7 | 0.00 | 0.00 | 0.00 | 55 | 1015.1 |
| 20260507145730 | 15 | 173 | 12.9 | 17.7 | 0.00 | 0.00 | 0.00 | 51 | 1015.3 |
| 20260507145226 | 15 | 236 | 3.2 | 11.3 | 0.00 | 0.00 | 0.00 | 52 | 1015.4 |
| 20260507144723 | 15 | 302 | 4.8 | 14.5 | 0.00 | 0.00 | 0.00 | 54 | 1015.2 |
| 20260507144221 | 15 | 184 | 8.0 | 11.3 | 0.00 | 0.00 | 0.00 | 53 | 1015.3 |
| 20260507143717 | 15 | 281 | 4.8 | 16.1 | 0.00 | 0.00 | 0.00 | 55 | 1015.0 |
| 20260507143215 | 15 | 238 | 4.8 | 11.3 | 0.00 | 0.00 | 0.00 | 56 | 1015.1 |
| 20260507142710 | 14 | 205 | 8.0 | 9.7 | 0.00 | 0.00 | 0.00 | 55 | 1015.1 |
| 20260507142207 | 14 | 259 | 1.6 | 16.1 | 0.00 | 0.00 | 0.00 | 56 | 1015.1 |
| 20260507141703 | 14 | 298 | 4.8 | 9.7 | 0.00 | 0.00 | 0.00 | 56 | 1015.1 |
| 20260507141201 | 14 | 304 | 3.2 | 12.9 | 0.00 | 0.00 | 0.00 | 58 | 1015.3 |
| 20260507140657 | 13 | 185 | 12.9 | 14.5 | 0.00 | 0.00 | 0.00 | 58 | 1015.4 |
| 20260507140154 | 13 | 217 | 3.2 | 12.9 | 0.00 | 0.00 | 0.00 | 60 | 1015.4 |
| 20260507135651 | 13 | 184 | 9.7 | 19.3 | 0.00 | 0.00 | 0.00 | 61 | 1015.2 |
| 20260507135149 | 12 | 185 | 8.0 | 14.5 | 0.00 | 0.00 | 0.00 | 62 | 1015.2 |
| 20260507134645 | 12 | 186 | 8.0 | 16.1 | 0.00 | 0.00 | 0.00 | 63 | 1015.2 |
| 20260507134141 | 12 | 196 | 8.0 | 17.7 | 0.00 | 0.00 | 0.00 | 63 | 1015.3 |
| 20260507133637 | 12 | 188 | 8.0 | 16.1 | 0.00 | 0.00 | 0.00 | 64 | 1015.1 |
| 20260507133135 | 12 | 182 | 11.3 | 14.5 | 0.00 | 0.00 | 0.00 | 65 | 1015.2 |
| 20260507132632 | 11 | 186 | 3.2 | 12.9 | 0.00 | 0.00 | 0.00 | 67 | 1015.0 |
| 20260507132128 | 11 | 168 | 8.0 | 12.9 | 0.00 | 0.00 | 0.00 | 67 | 1015.3 |
| 20260507131624 | 11 | 308 | 3.2 | 14.5 | 0.00 | 0.00 | 0.00 | 67 | 1015.0 |
| 20260507131122 | 11 | 180 | 4.8 | 6.4 | 0.00 | 0.00 | 0.00 | 69 | 1015.3 |
| 20260507130618 | 10 | 202 | 4.8 | 6.4 | 0.00 | 0.00 | 0.00 | 69 | 1015.5 |
| 20260507130117 | 10 | 193 | 3.2 | 6.4 | 0.00 | 0.00 | 0.00 | 70 | 1015.2 |
| 20260507125615 | 10 | 194 | 11.3 | 12.9 | 0.00 | 0.00 | 0.00 | 70 | 1015.5 |
| 20260507125112 | 10 | 175 | 1.6 | 8.0 | 0.00 | 0.00 | 0.00 | 69 | 1015.4 |
| 20260507124608 | 9 | 222 | 4.8 | 9.7 | 0.00 | 0.00 | 0.00 | 70 | 1015.4 |
| 20260507124107 | 9 | 328 | 1.6 | 8.0 | 0.00 | 0.00 | 0.00 | 72 | 1015.8 |
| 20260507123604 | 9 | 208 | 3.2 | 9.7 | 0.00 | 0.00 | 0.00 | 71 | 1015.7 |
| 20260507123101 | 9 | 202 | 3.2 | 4.8 | 0.00 | 0.00 | 0.00 | 72 | 1015.8 |
| 20260507122556 | 8 | 212 | 8.0 | 9.7 | 0.00 | 0.00 | 0.00 | 73 | 1015.5 |
| 20260507122052 | 8 | 180 | 6.4 | 8.0 | 0.00 | 0.00 | 0.00 | 76 | 1015.7 |
| 20260507121548 | 7 | 183 | 4.8 | 8.0 | 0.00 | 0.00 | 0.00 | 79 | 1015.8 |
| 20260507121044 | 7 | 183 | 3.2 | 9.7 | 0.00 | 0.00 | 0.00 | 79 | 1015.8 |
| 20260507120540 | 7 | 191 | 8.0 | 9.7 | 0.00 | 0.00 | 0.00 | 79 | 1015.7 |
| 20260507120038 | 6 | 171 | 9.7 | 14.5 | 0.00 | 0.00 | 0.00 | 80 | 1015.5 |
| 20260507115534 | 6 | 200 | 3.2 | 8.0 | 0.00 | 0.00 | 0.00 | 80 | 1015.5 |
| 20260507115030 | 6 | 171 | 3.2 | 8.0 | 0.00 | 0.00 | 0.00 | 80 | 1015.7 |
| 20260507114526 | 6 | 180 | 3.2 | 8.0 | 0.00 | 0.00 | 0.00 | 80 | 1015.4 |
| 20260507114023 | 6 | 191 | 4.8 | 8.0 | 0.00 | 0.00 | 0.00 | 80 | 1015.4 |
| 20260507113520 | 6 | 176 | 3.2 | 6.4 | 0.00 | 0.00 | 0.00 | 79 | 1015.4 |
| 20260507113017 | 6 | 197 | 3.2 | 8.0 | 0.00 | 0.00 | 0.00 | 79 | 1015.4 |
| 20260507112515 | 6 | 167 | 3.2 | 4.8 | 0.00 | 0.00 | 0.00 | 80 | 1015.4 |
| 20260507112012 | 6 | 198 | 4.8 | 6.4 | 0.00 | 0.00 | 0.00 | 79 | 1015.7 |
| 20260507111510 | 6 | 184 | 3.2 | 4.8 | 0.00 | 0.00 | 0.00 | 79 | 1015.4 |
| 20260507111005 | 6 | 193 | 4.8 | 4.8 | 0.00 | 0.00 | 0.00 | 80 | 1015.3 |
| 20260507110502 | 6 | 187 | 4.8 | 4.8 | 0.00 | 0.00 | 0.00 | 80 | 1015.3 |
| 20260507105958 | 6 | 181 | 3.2 | 4.8 | 0.00 | 0.00 | 0.00 | 79 | 1015.2 |
| 20260507105455 | 6 | 185 | 3.2 | 4.8 | 0.00 | 0.00 | 0.00 | 78 | 1015.3 |
| 20260507104951 | 6 | 189 | 4.8 | 4.8 | 0.00 | 0.00 | 0.00 | 78 | 1015.1 |
| 20260507104449 | 6 | 187 | 4.8 | 6.4 | 0.00 | 0.00 | 0.00 | 77 | 1015.3 |
| 20260507103944 | 6 | 202 | 1.6 | 6.4 | 0.00 | 0.00 | 0.00 | 77 | 1015.1 |
| 20260507103441 | 6 | 188 | 3.2 | 4.8 | 0.00 | 0.00 | 0.00 | 77 | 1015.3 |
| 20260507102937 | 6 | 180 | 1.6 | 6.4 | 0.00 | 0.00 | 0.00 | 76 | 1015.0 |
| 20260507102434 | 6 | 183 | 4.8 | 6.4 | 0.00 | 0.00 | 0.00 | 75 | 1015.3 |
| 20260507101931 | 6 | 185 | 4.8 | 6.4 | 0.00 | 0.00 | 0.00 | 75 | 1015.1 |
| 20260507101426 | 6 | 172 | 3.2 | 6.4 | 0.00 | 0.00 | 0.00 | 75 | 1015.5 |
| 20260507100922 | 6 | 181 | 4.8 | 6.4 | 0.00 | 0.00 | 0.00 | 74 | 1015.4 |
| 20260507100420 | 6 | 183 | 4.8 | 6.4 | 0.00 | 0.00 | 0.00 | 74 | 1015.5 |
| 20260507095918 | 6 | 190 | 3.2 | 6.4 | 0.00 | 0.00 | 0.00 | 74 | 1015.5 |
| 20260507095415 | 6 | 197 | 3.2 | 4.8 | 0.00 | 0.00 | 0.00 | 73 | 1015.4 |
| 20260507094912 | 6 | 189 | 6.4 | 6.4 | 0.00 | 0.00 | 0.00 | 73 | 1015.5 |
| 20260507094408 | 6 | 185 | 4.8 | 6.4 | 0.00 | 0.00 | 0.00 | 73 | 1015.5 |
| 20260507093905 | 7 | 190 | 4.8 | 6.4 | 0.00 | 0.00 | 0.00 | 73 | 1015.5 |
| 20260507093404 | 7 | 186 | 4.8 | 6.4 | 0.00 | 0.00 | 0.00 | 72 | 1015.4 |
| 20260507092902 | 7 | 192 | 3.2 | 8.0 | 0.00 | 0.00 | 0.00 | 71 | 1015.8 |
| 20260507092357 | 7 | 193 | 4.8 | 6.4 | 0.00 | 0.00 | 0.00 | 70 | 1015.8 |
| 20260507091854 | 7 | 185 | 4.8 | 6.4 | 0.00 | 0.00 | 0.00 | 70 | 1015.8 |
| 20260507091350 | 7 | 190 | 4.8 | 6.4 | 0.00 | 0.00 | 0.00 | 69 | 1016.0 |
| 20260507090846 | 7 | 183 | 4.8 | 6.4 | 0.00 | 0.00 | 0.00 | 69 | 1015.9 |
| 20260507090343 | 7 | 182 | 4.8 | 6.4 | 0.00 | 0.00 | 0.00 | 68 | 1015.8 |
| 20260507085840 | 7 | 194 | 4.8 | 6.4 | 0.00 | 0.00 | 0.00 | 67 | 1015.8 |
| 20260507085336 | 7 | 186 | 3.2 | 8.0 | 0.00 | 0.00 | 0.00 | 67 | 1015.8 |
| 20260507084834 | 7 | 201 | 4.8 | 6.4 | 0.00 | 0.00 | 0.00 | 67 | 1016.0 |
| 20260507084330 | 7 | 182 | 3.2 | 8.0 | 0.00 | 0.00 | 0.00 | 67 | 1015.8 |
| 20260507083828 | 7 | 187 | 6.4 | 6.4 | 0.00 | 0.00 | 0.00 | 66 | 1015.7 |
| 20260507083324 | 7 | 195 | 4.8 | 6.4 | 0.00 | 0.00 | 0.00 | 66 | 1015.7 |
| 20260507082820 | 7 | 192 | 4.8 | 6.4 | 0.00 | 0.00 | 0.00 | 66 | 1016.0 |
| 20260507082316 | 7 | 187 | 3.2 | 6.4 | 0.00 | 0.00 | 0.00 | 65 | 1016.2 |
| 20260507081814 | 7 | 193 | 4.8 | 6.4 | 0.00 | 0.00 | 0.00 | 66 | 1016.2 |
| 20260507081309 | 7 | 189 | 4.8 | 4.8 | 0.00 | 0.00 | 0.00 | 66 | 1016.0 |
| 20260507080806 | 7 | 194 | 4.8 | 8.0 | 0.00 | 0.00 | 0.00 | 65 | 1016.1 |
| 20260507080302 | 7 | 188 | 6.4 | 6.4 | 0.00 | 0.00 | 0.00 | 65 | 1016.0 |
| 20260507075757 | 7 | 191 | 3.2 | 6.4 | 0.00 | 0.00 | 0.00 | 65 | 1016.1 |
| 20260507075254 | 7 | 174 | 4.8 | 6.4 | 0.00 | 0.00 | 0.00 | 65 | 1015.9 |
| 20260507074750 | 7 | 194 | 3.2 | 6.4 | 0.00 | 0.00 | 0.00 | 64 | 1016.0 |
| 20260507074249 | 8 | 191 | 3.2 | 6.4 | 0.00 | 0.00 | 0.00 | 64 | 1016.0 |
| 20260507073745 | 8 | 180 | 4.8 | 6.4 | 0.00 | 0.00 | 0.00 | 64 | 1016.1 |
| 20260507073242 | 8 | 180 | 4.8 | 6.4 | 0.00 | 0.00 | 0.00 | 64 | 1016.0 |
| 20260507072740 | 8 | 195 | 3.2 | 8.0 | 0.00 | 0.00 | 0.00 | 63 | 1016.2 |
| 20260507072237 | 8 | 194 | 4.8 | 4.8 | 0.00 | 0.00 | 0.00 | 63 | 1016.2 |
| 20260507071734 | 8 | 180 | 3.2 | 6.4 | 0.00 | 0.00 | 0.00 | 63 | 1016.2 |
| 20260507071230 | 8 | 188 | 6.4 | 6.4 | 0.00 | 0.00 | 0.00 | 62 | 1016.0 |
| 20260507070727 | 8 | 179 | 3.2 | 6.4 | 0.00 | 0.00 | 0.00 | 61 | 1016.3 |
| 20260507070224 | 8 | 190 | 4.8 | 4.8 | 0.00 | 0.00 | 0.00 | 61 | 1016.4 |
| 20260507065721 | 8 | 183 | 3.2 | 6.4 | 0.00 | 0.00 | 0.00 | 61 | 1016.5 |
| 20260507065218 | 8 | 182 | 4.8 | 4.8 | 0.00 | 0.00 | 0.00 | 61 | 1016.5 |
| 20260507064715 | 8 | 187 | 3.2 | 6.4 | 0.00 | 0.00 | 0.00 | 61 | 1016.4 |
| 20260507064214 | 8 | 180 | 3.2 | 4.8 | 0.00 | 0.00 | 0.00 | 60 | 1016.3 |
| 20260507063711 | 8 | 197 | 1.6 | 4.8 | 0.00 | 0.00 | 0.00 | 60 | 1016.5 |
| 20260507063207 | 9 | 189 | 3.2 | 4.8 | 0.00 | 0.00 | 0.00 | 59 | 1016.6 |
| 20260507062704 | 9 | 176 | 1.6 | 3.2 | 0.00 | 0.00 | 0.00 | 59 | 1016.7 |
| 20260507062202 | 9 | 200 | 3.2 | 6.4 | 0.00 | 0.00 | 0.00 | 57 | 1016.6 |
| 20260507061700 | 10 | 190 | 3.2 | 3.2 | 0.00 | 0.00 | 0.00 | 56 | 1016.8 |
| 20260507061157 | 10 | 198 | 3.2 | 4.8 | 0.00 | 0.00 | 0.00 | 55 | 1016.9 |
| 20260507060655 | 10 | 119 | 0.0 | 4.8 | 0.00 | 0.00 | 0.00 | 54 | 1016.7 |
| 20260507060151 | 10 | 242 | 1.6 | 1.6 | 0.00 | 0.00 | 0.00 | 53 | 1016.7 |
| 20260507055647 | 10 | 206 | 3.2 | 3.2 | 0.00 | 0.00 | 0.00 | 53 | 1016.8 |
| 20260507055143 | 10 | 202 | 1.6 | 3.2 | 0.00 | 0.00 | 0.00 | 53 | 1017.1 |
| 20260507054639 | 10 | 217 | 4.8 | 6.4 | 0.00 | 0.00 | 0.00 | 51 | 1016.7 |
| 20260507054136 | 10 | 300 | 0.0 | 4.8 | 0.00 | 0.00 | 0.00 | 51 | 1016.7 |
| 20260507053634 | 10 | 213 | 4.8 | 4.8 | 0.00 | 0.00 | 0.00 | 51 | 1016.9 |
| 20260507053132 | 10 | 194 | 6.4 | 6.4 | 0.00 | 0.00 | 0.00 | 50 | 1016.9 |
| 20260507052631 | 10 | 194 | 3.2 | 4.8 | 0.00 | 0.00 | 0.00 | 51 | 1016.7 |
| 20260507052126 | 10 | 182 | 6.4 | 6.4 | 0.00 | 0.00 | 0.00 | 53 | 1016.6 |
| 20260507051624 | 10 | 200 | 3.2 | 4.8 | 0.00 | 0.00 | 0.00 | 55 | 1016.7 |
| 20260507051121 | 9 | 182 | 3.2 | 9.7 | 0.00 | 0.00 | 0.00 | 55 | 1016.5 |
| 20260507050618 | 8 | 197 | 4.8 | 6.4 | 0.00 | 0.00 | 0.00 | 61 | 1016.7 |
| 20260507050114 | 8 | 191 | 3.2 | 3.2 | 0.00 | 0.00 | 0.00 | 63 | 1016.8 |
| 20260507045611 | 8 | 198 | 3.2 | 3.2 | 0.00 | 0.03 | 0.03 | 66 | 1016.7 |
| 20260507045108 | 8 | 188 | 3.2 | 4.8 | 0.00 | 0.03 | 0.03 | 65 | 1016.8 |
| 20260507044604 | 8 | 180 | 3.2 | 4.8 | 0.00 | 0.03 | 0.03 | 66 | 1016.6 |
| 20260507044102 | 8 | 180 | 4.8 | 4.8 | 0.00 | 0.03 | 0.03 | 70 | 1016.8 |
| 20260507043557 | 8 | 200 | 6.4 | 6.4 | 0.00 | 0.03 | 0.03 | 71 | 1016.6 |
| 20260507043055 | 8 | 182 | 4.8 | 4.8 | 0.00 | 0.03 | 0.03 | 71 | 1016.8 |
| 20260507042550 | 8 | 191 | 3.2 | 8.0 | 0.00 | 0.03 | 0.03 | 71 | 1016.7 |
| 20260507042046 | 8 | 183 | 4.8 | 6.4 | 0.00 | 0.03 | 0.03 | 71 | 1016.6 |
| 20260507041543 | 7 | 187 | 4.8 | 6.4 | 0.00 | 0.03 | 0.03 | 71 | 1016.7 |
| 20260507041040 | 7 | 181 | 4.8 | 6.4 | 0.00 | 0.03 | 0.03 | 73 | 1016.8 |
| 20260507040537 | 7 | 185 | 4.8 | 6.4 | 0.00 | 0.03 | 0.03 | 73 | 1016.7 |
| 20260507040033 | 7 | 186 | 4.8 | 6.4 | 0.00 | 0.03 | 0.03 | 72 | 1017.1 |
| 20260507035529 | 7 | 177 | 3.2 | 6.4 | 0.00 | 0.03 | 0.03 | 72 | 1017.0 |
| 20260507035026 | 7 | 191 | 6.4 | 6.4 | 0.00 | 0.03 | 0.03 | 74 | 1017.1 |
| 20260507034522 | 7 | 192 | 6.4 | 8.0 | 0.00 | 0.03 | 0.03 | 73 | 1016.8 |
| 20260507034020 | 7 | 186 | 4.8 | 8.0 | 0.00 | 0.03 | 0.03 | 73 | 1017.0 |
| 20260507033518 | 7 | 185 | 6.4 | 6.4 | 0.00 | 0.03 | 0.03 | 73 | 1017.1 |
| 20260507033015 | 7 | 188 | 6.4 | 8.0 | 0.00 | 0.03 | 0.03 | 72 | 1017.1 |
| 20260507032512 | 6 | 176 | 4.8 | 6.4 | 0.00 | 0.03 | 0.03 | 71 | 1017.1 |
| 20260507032008 | 6 | 194 | 6.4 | 6.4 | 0.00 | 0.03 | 0.03 | 72 | 1017.0 |
| 20260507031504 | 6 | 187 | 6.4 | 8.0 | 0.00 | 0.03 | 0.03 | 72 | 1016.9 |
| 20260507031002 | 6 | 184 | 6.4 | 6.4 | 0.00 | 0.03 | 0.03 | 73 | 1017.0 |
| 20260507030458 | 6 | 182 | 4.8 | 8.0 | 0.00 | 0.03 | 0.03 | 74 | 1017.2 |
| 20260507025956 | 6 | 182 | 4.8 | 6.4 | 0.00 | 0.03 | 0.03 | 72 | 1016.9 |
| 20260507025453 | 7 | 188 | 4.8 | 6.4 | 0.00 | 0.03 | 0.03 | 71 | 1016.9 |
| 20260507024950 | 7 | 188 | 6.4 | 8.0 | 0.00 | 0.03 | 0.03 | 70 | 1016.9 |
| 20260507024448 | 7 | 192 | 8.0 | 8.0 | 0.00 | 0.03 | 0.03 | 71 | 1017.0 |
| 20260507023943 | 7 | 181 | 6.4 | 8.0 | 0.00 | 0.03 | 0.03 | 71 | 1016.7 |
| 20260507023440 | 7 | 187 | 6.4 | 6.4 | 0.00 | 0.03 | 0.03 | 72 | 1016.7 |
| 20260507022938 | 7 | 188 | 6.4 | 6.4 | 0.00 | 0.03 | 0.03 | 71 | 1016.7 |
| 20260507022435 | 7 | 187 | 6.4 | 8.0 | 0.00 | 0.03 | 0.03 | 70 | 1016.8 |
| 20260507021930 | 7 | 192 | 6.4 | 8.0 | 0.00 | 0.03 | 0.03 | 70 | 1016.7 |
| 20260507021425 | 8 | 192 | 6.4 | 8.0 | 0.00 | 0.03 | 0.03 | 70 | 1016.5 |
| 20260507020924 | 8 | 190 | 6.4 | 6.4 | 0.00 | 0.03 | 0.03 | 69 | 1016.5 |
| 20260507020420 | 8 | 195 | 6.4 | 6.4 | 0.00 | 0.03 | 0.03 | 69 | 1016.5 |
| 20260507015917 | 8 | 190 | 6.4 | 6.4 | 0.00 | 0.03 | 0.03 | 67 | 1016.7 |
| 20260507015415 | 8 | 185 | 4.8 | 6.4 | 0.00 | 0.03 | 0.03 | 67 | 1016.4 |
| 20260507014912 | 8 | 181 | 3.2 | 3.2 | 0.00 | 0.03 | 0.03 | 66 | 1016.3 |
| 20260507014408 | 9 | 185 | 1.6 | 3.2 | 0.00 | 0.03 | 0.03 | 65 | 1016.5 |
| 20260507013905 | 10 | 192 | 3.2 | 4.8 | 0.00 | 0.03 | 0.03 | 64 | 1016.3 |